IRIDIUM 15

Last updated on Wed Nov 29 2017 00:19:02 GMT+0000 (Greenwich Mean Time)

1 24869U 97034A 17332.45924479 -.00000016 00000-0 -11635-4 0 9991 2 24869 86.4154 313.3411 0002145 94.9452 265.1991 14.38606512 67552
UTC large
Height (km)
Speed (km/s)
/
Latitude / Longitude
Inclination (degrees)
Orbital Period (minutes)
Azimuth
Elevation
Range (km)
Doppler Factor

Next 0 passes for location: London (51.5072 / 0.1276)

Sorry there are no passes over London.